[[{"header":{"parameterUnit":"m.s-1","parameterCategory":1,"la1":30.2991,"la2":30.254,"lo1":-89.0895,"lo2":-89.0444,"dy":0.0017,"dx":0.0017,"nx":28,"ny":28,"refTime":"2023-10-02T03:00:00:Z","depth":0,"parameterNumber":2,"parameterNumberName":"U-component_of_WINDS"},"data":[0,0,0,0,0,0,0,0,0,0,0,0,0,0,0,0,0,0,0,0,0,0,0,0,0,0,0,0,0,0,0,0,0,0,0,0,0,0,0,0,0,0,0,0,0,0,0,0,0,0,0,0,0,0,0,0,0,0,-5.4625,-5.4625,0,-5.4628,-5.4629,-5.4629,-5.4503,-5.45,-5.4497,-5.4494,-5.4499,-5.4502,-5.4505,0,0,0,0,0,0,0,0,0,0,0,0,0,-5.4514,-5.4516,-5.4625,-5.4625,-5.4625,-5.4628,-5.4629,-5.4629,-5.4504,-5.45,-5.4496,-5.4492,-5.4498,-5.4501,-5.4505,0,0,0,0,0,0,0,0,0,0,0,0,0,-5.4544,-5.4517,-5.4625,-5.4563,-5.4558,-5.4628,-5.4629,-5.4629,-5.4505,-5.45,-5.4495,-5.449,-5.4496,-5.4501,-5.4506,-5.4636,0,0,-5.4521,-5.4523,0,0,0,0,0,0,0,0,-5.4543,-5.4548,-5.4572,-5.4568,-5.4562,-5.456,-5.4591,-5.4631,-5.4506,-5.4525,-5.4494,-5.4488,-5.4523,-5.4526,-5.4537,-5.4636,-5.4637,-5.4521,-5.4524,-5.4526,-5.4528,0,0,0,0,0,0,0,-5.4541,-5.4548,-5.4626,-5.4573,-5.4566,-5.4537,-5.4535,-5.4598,-5.4552,-5.4523,-5.4514,-5.4516,-5.4519,-5.4533,-5.4537,-5.4637,-5.4521,-5.4525,-5.4528,-5.453,-5.4846,-5.4851,0,0,0,0,0,0,-5.4547,-5.4547,-5.4626,-5.4626,-5.454,-5.4543,-5.4541,-5.4566,-5.4551,-5.4544,-5.452,-5.451,-5.4527,-5.4531,-5.4536,-5.4689,-5.4526,-5.4531,-5.4534,-5.484,-5.4847,-5.4853,0,0,0,0,0,0,-5.4545,-5.4555,-5.4626,-5.4584,-5.4591,-5.455,-5.4579,-5.4569,-5.4582,-5.4549,-5.4541,-5.4542,-5.4523,-5.4529,-5.4613,-5.4688,-5.4533,-5.4537,-5.4834,-5.4842,-5.485,-5.4996,0,0,0,0,0,0,-5.4542,-5.4555,-5.4603,-5.4586,-5.4594,-5.4702,-5.4583,-5.4572,-5.459,-5.4577,-5.4567,-5.4561,-5.452,-5.4606,-5.4618,-5.4692,-5.4541,-5.4827,-5.4838,-5.4847,-5.4984,-5.5008,-5.5028,0,0,0,0,0,-5.4539,-5.4644,-5.4606,-5.4616,-5.4653,-5.4706,-5.4711,-5.4661,-5.4597,-5.4646,-5.4625,-5.4561,-5.4678,-5.4616,-5.4628,-5.4704,-5.4822,-5.4834,-5.4846,-5.4974,-5.5003,-5.5028,0,0,0,0,0,0,-5.467,-5.464,-5.4598,-5.4701,-5.4707,-5.4685,-5.4745,-5.4693,-5.4717,-5.4704,-5.4642,-5.4641,-5.4735,-5.4727,-5.4659,-5.4831,-5.4739,-5.4754,-5.4832,-5.4859,-5.4881,-5.4881,-5.4545,0,0,0,0,0,-5.4711,-5.4757,-5.4728,-5.4822,-5.4827,-5.4786,-5.4807,-5.4769,-5.4773,-5.4775,-5.476,-5.4767,-5.4805,-5.4832,-5.4865,-5.4983,-5.498,-5.5042,-5.5064,-5.5082,-5.5096,-5.516,-5.5188,-5.4893,-5.4893,-5.4893,0,0,-5.4796,-5.4786,-5.4818,-5.4848,-5.4848,-5.4898,-5.4789,-5.4845,-5.4882,-5.4783,-5.4861,-5.4852,-5.4855,-5.4957,-5.5001,-5.4954,-5.5177,-5.5098,-5.5113,-5.5116,-5.5176,-5.5204,-5.5228,-5.4901,-5.49,-5.4898,0,0,-5.4976,-5.4973,-5.5051,-5.5054,-5.5056,-5.5028,-5.5048,-5.5034,-5.5024,-5.5101,-5.5029,-5.5073,-5.5139,-5.5146,-5.5158,-5.5345,-5.5288,-5.5358,-5.5473,-5.5536,-5.556,-5.558,-5.5648,-5.5673,-5.5372,-5.5372,-5.5372,0,-5.5082,-5.5153,-5.5098,-5.516,-5.5176,-5.509,-5.517,-5.5176,-5.5189,-5.5203,-5.515,-5.5234,-5.523,-5.5334,-5.538,-5.5392,-5.5413,-5.5358,-5.5561,-5.5581,-5.5599,-5.5663,-5.5689,-5.5381,-5.538,-5.5379,-5.5378,0,-5.5283,-5.5334,-5.5397,-5.5413,-5.5436,-5.5507,-5.5464,-5.5495,-5.5455,-5.5434,-5.5516,-5.5509,-5.554,-5.5562,-5.5523,-5.5661,-5.5632,-5.5571,-5.5477,-5.5636,-5.5696,-5.572,-5.5393,-5.539,-5.5387,-5.5385,0,0,-5.5544,-5.5531,-5.5555,-5.5562,-5.556,-5.5598,-5.5667,-5.5697,-5.5726,-5.5739,-5.5795,-5.5856,-5.58,-5.5814,-5.5776,-5.5832,-5.5982,-5.5764,-5.5763,-5.5806,-5.6136,-5.6182,-5.6211,-5.5945,-5.5949,-5.5953,-5.6136,0,-5.572,-5.5834,-5.5788,-5.5908,-5.5955,-5.5876,-5.5935,-5.5942,-5.5925,-5.5963,-5.5944,-5.5988,-5.5911,-5.5919,-5.5971,-5.5953,-5.6048,-5.5939,-5.5998,-5.6001,-5.6,-5.6242,-5.629,-5.6463,-5.6159,-5.6163,-5.6165,0,-5.5939,-5.5962,-5.6087,-5.6078,-5.6097,-5.6151,-5.6177,-5.6215,-5.6221,-5.6205,-5.6223,-5.6173,-5.6241,-5.6148,-5.6242,-5.617,-5.6191,-5.6187,-5.6192,-5.6196,-5.6093,-5.6253,-5.6517,-5.6543,-5.6201,-5.6198,-5.6196,0,-5.6119,-5.6181,-5.6264,-5.6272,-5.6264,-5.6305,-5.6304,-5.6305,-5.6328,-5.6351,-5.6365,-5.6397,-5.6414,-5.6441,-5.6402,-5.6337,-5.6502,-5.6406,-5.6492,-5.6493,-5.653,-5.6528,-5.6802,-5.6544,-5.6543,-5.6543,-5.6542,0,-5.632,-5.6399,-5.6344,-5.6395,-5.6483,-5.6431,-5.6519,-5.6509,-5.6512,-5.6561,-5.6494,-5.6542,-5.6487,-5.6531,-5.6501,-5.6585,-5.6593,-5.6583,-5.6574,-5.6589,-5.659,-5.6602,-5.6589,-5.655,-5.6548,-5.6547,-5.6546,0,-5.6534,-5.6501,-5.6586,-5.6573,-5.6571,-5.6637,-5.6626,-5.6673,-5.6652,-5.6716,-5.6727,-5.6695,-5.6743,-5.6707,-5.6754,-5.6734,-5.6845,-5.6819,-5.6843,-5.6836,-5.6925,-5.6917,-5.7215,-5.7253,-5.6971,-5.6974,-5.6976,0,-5.6665,-5.6724,-5.6718,-5.6746,-5.6749,-5.6795,-5.6818,-5.677,-5.6797,-5.6811,-5.6858,-5.69,-5.693,-5.7011,-5.6992,-5.7029,-5.7004,-5.7106,-5.7008,-5.7023,-5.7006,-5.7004,-5.701,-5.7125,-5.7129,-5.7131,-5.7134,0,-5.6901,-5.6882,-5.6917,-5.6949,-5.6978,-5.7,-5.7017,-5.7044,-5.6996,-5.703,-5.7078,-5.7102,-5.7151,-5.7195,-5.7225,-5.7225,-5.7173,-5.7165,-5.7187,-5.7203,-5.7215,-5.7211,-5.6897,-5.7158,-5.7155,-5.7154,-5.7152,-5.7151,-5.7077,-5.7127,-5.7132,-5.7174,-5.7182,-5.7201,-5.7245,-5.7231,-5.727,-5.7306,-5.7276,-5.7334,-5.7342,-5.7377,-5.7384,-5.743,-5.7388,-5.742,-5.7428,-5.7437,-5.745,-5.7208,-5.7435,-5.7435,-5.7434,-5.7433,-5.7433,0,-5.731,-5.731,-5.735,-5.7376,-5.7411,-5.7359,-5.7375,-5.7408,-5.746,-5.7472,-5.7504,-5.7561,-5.7604,-5.759,-5.7628,-5.7668,-5.7645,-5.768,-5.7677,-5.7678,-5.7484,-5.7462,-5.7698,-5.7698,-5.7698,-5.7698,-5.7698,-5.7698,-5.7435,-5.7518,-5.7501,-5.7588,-5.7586,-5.7643,-5.7657,-5.7675,-5.7684,-5.775,-5.7785,-5.7776,-5.7779,-5.7817,-5.7855,-5.785,-5.7867,-5.7911,-5.7898,-5.7717,-5.7691,-5.7666,-5.7645,-5.7915,-5.7916,-5.8087,-5.8089,-5.809]},{"header":{"parameterUnit":"m.s-1","parameterCategory":1,"la1":30.2991,"la2":30.254,"lo1":-89.0895,"lo2":-89.0444,"dy":0.0017,"dx":0.0017,"nx":28,"ny":28,"refTime":"2023-10-02T03:00:00:Z","depth":0,"parameterNumber":3,"parameterNumberName":"V-component_of_WINDS"},"data":[0,0,0,0,0,0,0,0,0,0,0,0,0,0,0,0,0,0,0,0,0,0,0,0,0,0,0,0,0,0,0,0,0,0,0,0,0,0,0,0,0,0,0,0,0,0,0,0,0,0,0,0,0,0,0,0,0,0,0.9508,0.9508,0,0.9491,0.9491,0.9491,0.9534,0.9535,0.9536,0.9538,0.9514,0.9512,0.951,0,0,0,0,0,0,0,0,0,0,0,0,0,0.9572,0.9571,0.9508,0.9508,0.9508,0.9491,0.9491,0.9491,0.9533,0.9535,0.9537,0.9538,0.9515,0.9513,0.951,0,0,0,0,0,0,0,0,0,0,0,0,0,0.9548,0.957,0.9508,0.9527,0.9529,0.9491,0.9491,0.9491,0.9533,0.9535,0.9537,0.9539,0.9515,0.9513,0.951,0.9452,0,0,0.9501,0.95,0,0,0,0,0,0,0,0,0.955,0.9546,0.9524,0.9526,0.9527,0.9517,0.9505,0.9478,0.9532,0.9531,0.9538,0.954,0.9513,0.951,0.9503,0.9451,0.945,0.9501,0.9499,0.9498,0.9497,0,0,0,0,0,0,0,0.9551,0.9547,0.9501,0.9524,0.9526,0.9535,0.9534,0.95,0.9511,0.9531,0.9534,0.9532,0.9514,0.9505,0.9502,0.9449,0.9501,0.9499,0.9497,0.9496,0.9349,0.9347,0,0,0,0,0,0,0.9551,0.9548,0.9502,0.9501,0.9544,0.9532,0.9531,0.9518,0.9511,0.9512,0.953,0.9534,0.9509,0.9506,0.9502,0.9432,0.9498,0.9496,0.9494,0.9351,0.9348,0.9346,0,0,0,0,0,0,0.9553,0.9547,0.9502,0.9525,0.952,0.9529,0.9514,0.9517,0.9508,0.9511,0.9512,0.952,0.9511,0.9506,0.9464,0.9432,0.9494,0.9492,0.9354,0.935,0.9347,0.9294,0,0,0,0,0,0,0.9554,0.9547,0.9526,0.9525,0.9519,0.9466,0.9512,0.9515,0.9504,0.9508,0.9501,0.9502,0.9512,0.9468,0.9462,0.9429,0.9489,0.9356,0.9352,0.9348,0.9298,0.9289,0.9281,0,0,0,0,0,0.9556,0.951,0.9524,0.9519,0.9493,0.9465,0.9461,0.9476,0.9501,0.9479,0.9481,0.9502,0.9438,0.9464,0.9456,0.9423,0.9358,0.9353,0.9349,0.9302,0.9291,0.9281,0,0,0,0,0,0,0.9504,0.951,0.9526,0.9479,0.9471,0.9472,0.9444,0.9463,0.9446,0.9451,0.9468,0.9466,0.9421,0.9419,0.9447,0.9366,0.9402,0.9395,0.9369,0.9358,0.935,0.935,0.9487,0,0,0,0,0,0.9488,0.9466,0.9472,0.9429,0.9425,0.9435,0.9423,0.9436,0.9428,0.9424,0.9423,0.9413,0.939,0.9375,0.9354,0.9299,0.9297,0.9273,0.9264,0.9257,0.925,0.922,0.9208,0.933,0.933,0.933,0,0,0.9452,0.9453,0.9437,0.9419,0.9414,0.9389,0.9432,0.9404,0.9385,0.9419,0.938,0.9379,0.9369,0.932,0.9299,0.9316,0.9217,0.9251,0.9245,0.9242,0.9213,0.9202,0.9192,0.9326,0.9327,0.9327,0,0,0.9375,0.9374,0.9338,0.9334,0.9328,0.9335,0.9327,0.9325,0.9327,0.9289,0.9314,0.9291,0.9252,0.9244,0.9235,0.9157,0.9175,0.915,0.9103,0.9073,0.9064,0.9055,0.9025,0.9015,0.9143,0.9143,0.9143,0,0.933,0.9296,0.9317,0.9287,0.9277,0.9311,0.9273,0.9267,0.9254,0.9246,0.9267,0.922,0.9215,0.9165,0.9146,0.9138,0.9127,0.9149,0.9064,0.9056,0.9048,0.902,0.9009,0.914,0.9141,0.9141,0.9141,0,0.9241,0.9217,0.9188,0.9177,0.9165,0.9131,0.9146,0.913,0.9145,0.915,0.911,0.9107,0.9086,0.9076,0.9088,0.9027,0.9038,0.9062,0.9097,0.9033,0.9006,0.8996,0.9136,0.9137,0.9138,0.9138,0,0,0.9126,0.9129,0.9118,0.9113,0.9111,0.9091,0.906,0.9042,0.9028,0.9018,0.899,0.8959,0.8981,0.897,0.8982,0.8957,0.8893,0.8983,0.8983,0.8964,0.8824,0.8804,0.8791,0.8907,0.8905,0.8904,0.8824,0,0.9048,0.8995,0.9014,0.8959,0.8936,0.8969,0.8941,0.8935,0.894,0.892,0.8925,0.8901,0.8933,0.8927,0.8904,0.8906,0.8865,0.8913,0.8879,0.8877,0.8877,0.8778,0.8756,0.8681,0.8814,0.8812,0.8811,0,0.8948,0.8937,0.8881,0.8883,0.8874,0.8848,0.8834,0.8816,0.881,0.8815,0.8805,0.8823,0.8791,0.883,0.8784,0.8816,0.8804,0.8804,0.8801,0.8795,0.8838,0.8767,0.8657,0.8645,0.8795,0.8796,0.8797,0,0.8867,0.8838,0.8801,0.8796,0.8798,0.8779,0.8779,0.8776,0.8764,0.8751,0.8744,0.8727,0.8716,0.8702,0.8715,0.8742,0.8667,0.8707,0.8668,0.8667,0.8647,0.8648,0.8531,0.8645,0.8645,0.8645,0.8645,0,0.8776,0.8739,0.8765,0.8741,0.8701,0.8724,0.8683,0.8686,0.8683,0.8659,0.8687,0.8664,0.8684,0.8662,0.8673,0.8632,0.8628,0.863,0.8632,0.8625,0.8625,0.8615,0.8619,0.8642,0.8643,0.8643,0.8644,0,0.8677,0.8693,0.8653,0.866,0.8661,0.863,0.8635,0.8612,0.8621,0.8591,0.8585,0.8597,0.8573,0.8586,0.8561,0.8568,0.8515,0.8526,0.8517,0.8519,0.8478,0.8481,0.8349,0.8332,0.8459,0.8458,0.8457,0,0.8615,0.8589,0.8593,0.858,0.8579,0.8558,0.8547,0.8569,0.8556,0.8548,0.8526,0.8506,0.849,0.8451,0.8456,0.8437,0.8446,0.8401,0.8442,0.8437,0.8442,0.8442,0.8438,0.8391,0.839,0.8388,0.8387,0,0.8504,0.8514,0.8499,0.8486,0.8473,0.8463,0.8455,0.8443,0.8465,0.8449,0.8427,0.8415,0.8391,0.8369,0.8353,0.8351,0.8371,0.8375,0.8365,0.8355,0.835,0.835,0.8491,0.8377,0.8378,0.8379,0.8379,0.838,0.8421,0.8398,0.8398,0.8379,0.8377,0.837,0.8349,0.8357,0.8339,0.8322,0.8336,0.8309,0.8304,0.8286,0.8281,0.8259,0.8276,0.8262,0.8257,0.8253,0.8246,0.8357,0.8256,0.8257,0.8257,0.8257,0.8258,0,0.8309,0.8311,0.8295,0.8284,0.827,0.8295,0.8289,0.8274,0.825,0.8246,0.8231,0.8204,0.8184,0.8189,0.8171,0.8152,0.8161,0.8146,0.8146,0.8144,0.8233,0.8242,0.8139,0.8139,0.8139,0.8139,0.8139,0.8139,0.8249,0.8212,0.8222,0.8184,0.8186,0.8161,0.8155,0.8148,0.8145,0.8115,0.8099,0.8104,0.8103,0.8085,0.8067,0.8069,0.806,0.8041,0.8046,0.8127,0.8138,0.8149,0.8159,0.8039,0.8039,0.7959,0.7958,0.7958]}]]